When you browse on this site, cookies collect data to enhance your experience and personalize the content and advertising you see.
Visit our Privacy Policy to learn more. By continuing to use the site, you agree to this use of cookies and data.
  • In Lithuania
  • List of Countries
  • For 7 days
  • Water Temperature
  • Satellite Maps
  • Weather Map
  • Weather Widgets
  • user-avatar
    Login

    Hourly Weather Beja

    Today, 18 February, Monday

    Time Temperature Precipitation Wind Pressure Humidity
    00:00 +11°C° 0.3 mm 3 mps 741 mmHg 96%
    01:00 +11°C° 0.3 mm 3 mps 741 mmHg 96%
    02:00 +12°C° 0.3 mm 2 mps 740 mmHg 97%
    03:00 +10°C° 1.1 mm 2 mps 740 mmHg 97%
    04:00 +11°C° 1.1 mm 1 mps 740 mmHg 97%
    05:00 +11°C° 0 mm 1 mps 740 mmHg 97%
    06:00 +10°C° 2 mm 2 mps 740 mmHg 97%
    07:00 +10°C° 2 mm 2 mps 740 mmHg 96%
    08:00 +10°C° 2 mm 3 mps 740 mmHg 96%
    09:00 +10°C° 2.1 mm 3 mps 740 mmHg 95%
    10:00 +10°C° 2.1 mm 3 mps 740 mmHg 95%
    11:00 +10°C° 0 mm 4 mps 740 mmHg 94%
    12:00 +10°C° 1 mm 4 mps 740 mmHg 92%
    13:00 +11°C° 1 mm 4 mps 740 mmHg 90%
    14:00 +11°C° 1 mm 4 mps 740 mmHg 88%
    15:00 +11°C° 0.1 mm 3 mps 740 mmHg 88%
    16:00 +12°C° 0.1 mm 2 mps 740 mmHg 87%
    17:00 +12°C° 0.1 mm 2 mps 741 mmHg 87%
    18:00 +12°C° 0.1 mm 2 mps 741 mmHg 89%
    19:00 +10°C° 0.1 mm 2 mps 742 mmHg 90%
    20:00 +9°C° 0.1 mm 2 mps 742 mmHg 92%
    21:00 +10°C° 0 mm 1 mps 742 mmHg 92%
    22:00 +10°C° 0 mm 1 mps 743 mmHg 92%
    23:00 +9°C° 0 mm 1 mps 743 mmHg 92%

    Tomorrow, 19 February, Tuesday

    Time Temperature Precipitation Wind Pressure Humidity
    00:00 +9°C° 0 mm 1 mps 743 mmHg 92%
    01:00 +9°C° 0 mm 1 mps 743 mmHg 92%
    02:00 +9°C° 0 mm 1 mps 743 mmHg 91%
    03:00 +9°C° 0 mm 1 mps 743 mmHg 91%
    04:00 +9°C° 0 mm 1 mps 743 mmHg 92%
    05:00 +8°C° 0 mm 1 mps 743 mmHg 92%
    06:00 +8°C° 0 mm 0 mps 743 mmHg 90%
    07:00 +9°C° 0 mm 0 mps 743 mmHg 88%
    08:00 +10°C° 0 mm 0 mps 744 mmHg 86%
    09:00 +12°C° 0 mm 0 mps 744 mmHg 79%
    10:00 +14°C° 0 mm 0 mps 744 mmHg 73%
    11:00 +16°C° 0 mm 0 mps 744 mmHg 66%
    12:00 +18°C° 0.1 mm 1 mps 744 mmHg 64%
    13:00 +18°C° 0.1 mm 1 mps 744 mmHg 62%
    14:00 +19°C° 0.1 mm 1 mps 743 mmHg 61%
    15:00 +16°C° 0.5 mm 1 mps 743 mmHg 69%
    16:00 +15°C° 0.5 mm 2 mps 743 mmHg 77%
    17:00 +13°C° 0.5 mm 2 mps 743 mmHg 85%
    18:00 +12°C° 0 mm 2 mps 744 mmHg 86%
    19:00 +10°C° 0 mm 2 mps 744 mmHg 88%
    20:00 +10°C° 0 mm 1 mps 744 mmHg 90%
    21:00 +10°C° 0 mm 1 mps 744 mmHg 90%
    22:00 +9°C° 0 mm 1 mps 744 mmHg 90%
    23:00 +9°C° 0 mm 1 mps 744 mmHg 90%

    Day after tomorrow, 20 February, Wednesday

    Time Temperature Precipitation Wind Pressure Humidity
    00:00 +9°C° 0 mm 1 mps 744 mmHg 90%
    01:00 +8°C° 0 mm 0 mps 744 mmHg 90%
    02:00 +7°C° 0 mm 0 mps 744 mmHg 90%
    03:00 +7°C° 0 mm 0 mps 744 mmHg 90%
    04:00 +7°C° 0 mm 0 mps 744 mmHg 91%
    05:00 +7°C° 0 mm 0 mps 744 mmHg 91%
    06:00 +9°C° 0 mm 1 mps 745 mmHg 89%
    07:00 +10°C° 0 mm 1 mps 745 mmHg 87%
    08:00 +11°C° 0 mm 1 mps 746 mmHg 85%
    09:00 +13°C° 0 mm 2 mps 746 mmHg 80%
    10:00 +15°C° 0 mm 2 mps 746 mmHg 74%
    11:00 +16°C° 0 mm 2 mps 746 mmHg 69%
    12:00 +17°C° 0 mm 2 mps 746 mmHg 64%
    13:00 +18°C° 0 mm 2 mps 745 mmHg 60%
    14:00 +18°C° 0 mm 2 mps 745 mmHg 56%
    15:00 +17°C° 0 mm 2 mps 745 mmHg 61%
    16:00 +16°C° 0 mm 1 mps 745 mmHg 66%
    17:00 +14°C° 0 mm 1 mps 745 mmHg 70%
    18:00 +13°C° 0 mm 1 mps 745 mmHg 73%
    19:00 +12°C° 0 mm 1 mps 746 mmHg 76%
    20:00 +11°C° 0 mm 1 mps 746 mmHg 79%
    21:00 +11°C° 0 mm 1 mps 746 mmHg 80%
    22:00 +10°C° 0 mm 1 mps 746 mmHg 81%
    23:00 +10°C° 0 mm 1 mps 746 mmHg 82%

    21 February, Thursday

    Time Temperature Precipitation Wind Pressure Humidity
    00:00 +8°C° 0 mm 2 mps 746 mmHg 84%
    01:00 +8°C° 0 mm 2 mps 746 mmHg 87%
    02:00 +8°C° 0 mm 2 mps 746 mmHg 90%
    03:00 +8°C° 0 mm 2 mps 746 mmHg 90%
    04:00 +7°C° 0 mm 2 mps 746 mmHg 91%
    05:00 +7°C° 0 mm 2 mps 746 mmHg 91%
    06:00 +8°C° 0 mm 2 mps 746 mmHg 87%
    07:00 +9°C° 0 mm 3 mps 747 mmHg 83%
    08:00 +10°C° 0 mm 4 mps 747 mmHg 78%
    09:00 +12°C° 0 mm 4 mps 748 mmHg 71%
    10:00 +14°C° 0 mm 5 mps 748 mmHg 64%
    11:00 +15°C° 0 mm 5 mps 748 mmHg 57%
    12:00 +16°C° 0 mm 5 mps 748 mmHg 57%
    13:00 +16°C° 0 mm 5 mps 748 mmHg 56%
    14:00 +17°C° 0 mm 5 mps 747 mmHg 55%
    15:00 +17°C° 0 mm 4 mps 748 mmHg 61%
    16:00 +14°C° 0 mm 4 mps 748 mmHg 67%
    17:00 +13°C° 0 mm 3 mps 748 mmHg 72%
    18:00 +11°C° 0 mm 3 mps 748 mmHg 75%
    19:00 +10°C° 0 mm 3 mps 749 mmHg 78%
    20:00 +9°C° 0 mm 3 mps 749 mmHg 81%
    21:00 +9°C° 0 mm 3 mps 749 mmHg 82%
    22:00 +8°C° 0 mm 3 mps 749 mmHg 84%
    23:00 +8°C° 0 mm 3 mps 750 mmHg 85%

    22 February, Friday

    Time Temperature Precipitation Wind Pressure Humidity
    00:00 +8°C° 0 mm 3 mps 749 mmHg 84%
    01:00 +7°C° 0 mm 3 mps 749 mmHg 83%
    02:00 +7°C° 0 mm 3 mps 749 mmHg 82%
    03:00 +7°C° 0 mm 3 mps 749 mmHg 80%
    04:00 +5°C° 0 mm 3 mps 749 mmHg 78%
    05:00 +5°C° 0 mm 3 mps 749 mmHg 76%
    06:00 +6°C° 0 mm 4 mps 749 mmHg 71%
    07:00 +7°C° 0 mm 4 mps 750 mmHg 65%
    08:00 +8°C° 0 mm 4 mps 750 mmHg 60%
    09:00 +10°C° 0 mm 5 mps 750 mmHg 57%
    10:00 +14°C° 0 mm 5 mps 750 mmHg 54%
    11:00 +16°C° 0 mm 6 mps 750 mmHg 51%
    12:00 +16°C° 0 mm 5 mps 750 mmHg 51%
    13:00 +17°C° 0 mm 5 mps 750 mmHg 50%
    14:00 +19°C° 0 mm 5 mps 749 mmHg 50%
    15:00 +17°C° 0 mm 4 mps 749 mmHg 56%
    16:00 +14°C° 0 mm 3 mps 749 mmHg 63%
    17:00 +13°C° 0 mm 3 mps 749 mmHg 69%
    18:00 +12°C° 0 mm 2 mps 749 mmHg 69%
    19:00 +10°C° 0 mm 2 mps 749 mmHg 69%
    20:00 +9°C° 0 mm 2 mps 750 mmHg 70%
    21:00 +9°C° 0 mm 2 mps 750 mmHg 73%
    22:00 +8°C° 0 mm 2 mps 750 mmHg 76%
    23:00 +8°C° 0 mm 2 mps 749 mmHg 78%

    23 February, Saturday

    Time Temperature Precipitation Wind Pressure Humidity
    00:00 +8°C° 0 mm 2 mps 749 mmHg 81%
    01:00 +7°C° 0 mm 2 mps 749 mmHg 83%
    02:00 +7°C° 0 mm 3 mps 749 mmHg 85%
    03:00 +7°C° 0 mm 2 mps 749 mmHg 84%
    04:00 +6°C° 0 mm 2 mps 750 mmHg 83%
    05:00 +6°C° 0 mm 2 mps 750 mmHg 81%
    06:00 +7°C° 0 mm 3 mps 750 mmHg 75%
    07:00 +8°C° 0 mm 3 mps 751 mmHg 68%
    08:00 +10°C° 0 mm 3 mps 751 mmHg 61%
    09:00 +12°C° 0 mm 4 mps 751 mmHg 57%
    10:00 +14°C° 0 mm 4 mps 752 mmHg 53%
    11:00 +17°C° 0 mm 4 mps 752 mmHg 49%
    12:00 +18°C° 0 mm 4 mps 752 mmHg 48%
    13:00 +19°C° 0 mm 3 mps 751 mmHg 48%
    14:00 +19°C° 0 mm 3 mps 751 mmHg 48%
    15:00 +18°C° 0 mm 2 mps 751 mmHg 54%
    16:00 +16°C° 0 mm 2 mps 751 mmHg 59%
    17:00 +15°C° 0 mm 2 mps 752 mmHg 65%
    18:00 +13°C° 0 mm 2 mps 752 mmHg 65%
    19:00 +12°C° 0 mm 1 mps 752 mmHg 65%
    20:00 +11°C° 0 mm 1 mps 752 mmHg 64%
    21:00 +11°C° 0 mm 1 mps 753 mmHg 63%
    22:00 +10°C° 0 mm 1 mps 753 mmHg 62%
    23:00 +10°C° 0 mm 1 mps 753 mmHg 61%
    Show more